| time (UTC) | temp F | wind direction | speed MPH | gust MPH | rain 1hr in | rain 24hr in | rain mn in | humidity % | barometer mb |
| 20260903213811 | 81 | 157 | 0.0 | 0.0 | 0.00 | 2.64 | 2.64 | 73 | 1014.9 |
| 20260903213305 | 82 | 157 | 0.0 | 4.0 | 0.00 | 2.64 | 2.64 | 73 | 1014.7 |
| 20260903212800 | 82 | 157 | 0.0 | 4.0 | 0.00 | 2.64 | 2.64 | 72 | 1014.7 |
| 20260903212253 | 82 | 125 | 0.0 | 1.0 | 0.00 | 2.64 | 2.64 | 72 | 1014.8 |
| 20260903211747 | 83 | 125 | 0.0 | 3.0 | 0.00 | 2.64 | 2.64 | 72 | 1015.0 |
| 20260903211242 | 83 | 178 | 0.0 | 3.0 | 0.00 | 2.64 | 2.64 | 71 | 1015.0 |
| 20260903210952 | 83 | 105 | 0.0 | 6.0 | 0.00 | 2.64 | 2.64 | 71 | 1014.9 |
| 20260903210229 | 83 | 161 | 1.0 | 6.0 | 0.00 | 2.64 | 2.64 | 71 | 1014.9 |
| 20260903205723 | 83 | 83 | 1.0 | 5.0 | 0.00 | 2.64 | 2.64 | 70 | 1014.9 |
| 20260903205218 | 84 | 238 | 0.0 | 7.0 | 0.00 | 2.64 | 2.64 | 69 | 1014.9 |
| 20260903204712 | 84 | 135 | 1.0 | 7.0 | 0.00 | 2.64 | 2.64 | 69 | 1014.9 |
| 20260903204205 | 84 | 88 | 1.0 | 8.0 | 0.00 | 2.64 | 2.64 | 69 | 1014.9 |
| 20260903203659 | 84 | 126 | 1.0 | 8.0 | 0.00 | 2.64 | 2.64 | 68 | 1014.9 |
| 20260903203153 | 84 | 112 | 1.0 | 5.0 | 0.00 | 2.64 | 2.64 | 68 | 1014.9 |
| 20260903202914 | 84 | 258 | 1.0 | 5.0 | 0.00 | 2.64 | 2.64 | 69 | 1014.7 |
| 20260903202141 | 84 | 80 | 1.0 | 8.0 | 0.00 | 2.64 | 2.64 | 69 | 1014.6 |
| 20260903201635 | 84 | 182 | 1.0 | 8.0 | 0.00 | 2.64 | 2.64 | 67 | 1014.7 |
| 20260903201129 | 85 | 77 | 1.0 | 7.0 | 0.00 | 2.64 | 2.64 | 67 | 1014.8 |
| 20260903200625 | 85 | 173 | 1.0 | 7.0 | 0.00 | 2.64 | 2.64 | 66 | 1014.9 |
| 20260903200117 | 85 | 59 | 0.0 | 5.0 | 0.00 | 2.64 | 2.64 | 67 | 1015.0 |
| 20260903195834 | 85 | 80 | 1.0 | 8.0 | 0.00 | 2.64 | 2.64 | 66 | 1015.0 |
| 20260903195105 | 85 | 72 | 1.0 | 8.0 | 0.00 | 2.64 | 2.64 | 65 | 1015.0 |
| 20260903194559 | 85 | 209 | 1.0 | 8.0 | 0.00 | 2.64 | 2.64 | 65 | 1015.2 |
| 20260903194314 | 85 | 173 | 1.0 | 8.0 | 0.00 | 2.64 | 2.64 | 64 | 1015.2 |
| 20260903193548 | 85 | 75 | 1.0 | 9.0 | 0.00 | 2.64 | 2.64 | 64 | 1015.3 |
| 20260903193041 | 85 | 115 | 1.0 | 9.0 | 0.00 | 2.64 | 2.64 | 64 | 1015.5 |
| 20260903192536 | 85 | 104 | 1.0 | 7.0 | 0.00 | 2.64 | 2.64 | 64 | 1015.5 |
| 20260903192029 | 85 | 194 | 1.0 | 8.0 | 0.00 | 2.64 | 2.64 | 62 | 1015.5 |
| 20260903191524 | 85 | 152 | 0.0 | 5.0 | 0.00 | 2.64 | 2.64 | 62 | 1015.7 |
| 20260903191237 | 85 | 119 | 0.0 | 3.0 | 0.00 | 2.64 | 2.64 | 66 | 1015.8 |
| 20260903190511 | 84 | 137 | 2.0 | 8.0 | 0.00 | 2.64 | 2.64 | 65 | 1015.8 |
| 20260903190008 | 84 | 82 | 2.0 | 8.0 | 0.00 | 2.64 | 2.64 | 64 | 1015.8 |
| 20260903185721 | 84 | 99 | 2.0 | 9.0 | 0.00 | 2.64 | 2.64 | 63 | 1015.8 |
| 20260903185211 | 84 | 200 | 2.0 | 9.0 | 0.00 | 2.64 | 2.64 | 62 | 1015.9 |
| 20260903184446 | 84 | 101 | 1.0 | 8.0 | 0.00 | 2.64 | 2.64 | 64 | 1015.9 |
| 20260903183943 | 84 | 98 | 1.0 | 5.0 | 0.00 | 2.64 | 2.64 | 64 | 1016.1 |
| 20260903183435 | 84 | 148 | 2.0 | 10.0 | 0.00 | 2.64 | 2.64 | 62 | 1016.0 |
| 20260903183150 | 84 | 80 | 2.0 | 10.0 | 0.00 | 2.64 | 2.64 | 64 | 1016.0 |
| 20260903182423 | 84 | 123 | 2.0 | 9.0 | 0.00 | 2.64 | 2.64 | 63 | 1016.1 |
| 20260903181917 | 84 | 191 | 1.0 | 7.0 | 0.00 | 2.64 | 2.64 | 61 | 1016.1 |
| 20260903181425 | 84 | 101 | 1.0 | 9.0 | 0.00 | 2.64 | 2.64 | 61 | 1016.2 |
| 20260903180905 | 84 | 113 | 2.0 | 9.0 | 0.00 | 2.64 | 2.64 | 61 | 1016.3 |
| 20260903180624 | 83 | 146 | 2.0 | 13.0 | 0.00 | 2.64 | 2.64 | 61 | 1016.4 |
| 20260903180333 | 83 | 47 | 3.0 | 13.0 | 0.00 | 2.64 | 2.64 | 63 | 1016.5 |
| 20260903175607 | 83 | 86 | 3.0 | 12.0 | 0.00 | 2.64 | 2.64 | 62 | 1016.5 |
| 20260903174841 | 83 | 139 | 2.0 | 9.0 | 0.00 | 2.64 | 2.64 | 63 | 1016.7 |
| 20260903174335 | 83 | 242 | 2.0 | 8.0 | 0.00 | 2.64 | 2.64 | 62 | 1016.6 |
| 20260903174053 | 83 | 51 | 2.0 | 12.0 | 0.00 | 2.64 | 2.64 | 61 | 1016.6 |
| 20260903173326 | 83 | 102 | 2.0 | 12.0 | 0.00 | 2.64 | 2.64 | 61 | 1016.7 |
| 20260903172831 | 83 | 104 | 2.0 | 9.0 | 0.00 | 2.64 | 2.64 | 62 | 1016.7 |
| 20260903172312 | 82 | 46 | 1.0 | 9.0 | 0.00 | 2.64 | 2.64 | 63 | 1016.7 |
| 20260903171825 | 82 | 103 | 1.0 | 8.0 | 0.00 | 2.64 | 2.64 | 63 | 1016.7 |
| 20260903171757 | 82 | 68 | 2.0 | 10.0 | 0.00 | 2.64 | 2.64 | 64 | 1016.9 |
| 20260903170820 | 81 | 67 | 2.0 | 10.0 | 0.00 | 2.64 | 2.64 | 64 | 1016.9 |
| 20260903170309 | 81 | 94 | 3.0 | 10.0 | 0.00 | 2.64 | 2.64 | 65 | 1016.9 |
| 20260903165808 | 81 | 109 | 3.0 | 10.0 | 0.00 | 2.64 | 2.64 | 66 | 1017.0 |
| 20260903165308 | 80 | 84 | 2.0 | 9.0 | 0.00 | 2.64 | 2.64 | 65 | 1017.0 |
| 20260903165029 | 80 | 160 | 2.0 | 9.0 | 0.00 | 2.64 | 2.64 | 68 | 1017.1 |
| 20260903164305 | 80 | 92 | 3.0 | 11.0 | 0.00 | 2.64 | 2.64 | 67 | 1017.2 |
| 20260903163805 | 79 | 86 | 4.0 | 11.0 | 0.00 | 2.64 | 2.64 | 66 | 1017.1 |
| 20260903163305 | 79 | 50 | 4.0 | 11.0 | 0.00 | 2.64 | 2.64 | 66 | 1017.3 |
| 20260903162805 | 79 | 159 | 4.0 | 11.0 | 0.00 | 2.64 | 2.64 | 68 | 1017.4 |
| 20260903162306 | 79 | 133 | 2.0 | 9.0 | 0.00 | 2.64 | 2.64 | 66 | 1017.5 |
| 20260903161805 | 79 | 165 | 2.0 | 8.0 | 0.00 | 2.64 | 2.64 | 69 | 1017.5 |
| 20260903161305 | 79 | 141 | 2.0 | 11.0 | 0.00 | 2.64 | 2.64 | 70 | 1017.5 |
| 20260903160804 | 78 | 286 | 2.0 | 11.0 | 0.00 | 2.64 | 2.64 | 68 | 1017.6 |
| 20260903160741 | 78 | 208 | 2.0 | 12.0 | 0.00 | 2.64 | 2.64 | 70 | 1017.7 |
| 20260903155805 | 78 | 155 | 1.0 | 12.0 | 0.00 | 2.64 | 2.64 | 68 | 1017.7 |
| 20260903155306 | 78 | 121 | 1.0 | 7.0 | 0.00 | 2.64 | 2.64 | 71 | 1017.8 |
| 20260903155025 | 78 | 282 | 2.0 | 14.0 | 0.00 | 2.64 | 2.64 | 71 | 1017.9 |
| 20260903154534 | 78 | 98 | 3.0 | 14.0 | 0.00 | 2.64 | 2.64 | 71 | 1018.1 |
| 20260903153805 | 78 | 88 | 2.0 | 10.0 | 0.00 | 2.64 | 2.64 | 73 | 1018.1 |
| 20260903153305 | 77 | 79 | 1.0 | 11.0 | 0.00 | 2.64 | 2.64 | 74 | 1018.1 |
| 20260903152805 | 77 | 132 | 2.0 | 11.0 | 0.00 | 2.64 | 2.64 | 73 | 1018.2 |
| 20260903152532 | 77 | 105 | 2.0 | 10.0 | 0.00 | 2.65 | 2.64 | 75 | 1018.3 |
| 20260903151805 | 76 | 111 | 2.0 | 10.0 | 0.00 | 2.65 | 2.64 | 74 | 1018.3 |
| 20260903151304 | 76 | 103 | 3.0 | 13.0 | 0.00 | 2.65 | 2.64 | 75 | 1018.3 |
| 20260903151030 | 76 | 114 | 3.0 | 13.0 | 0.00 | 2.65 | 2.64 | 74 | 1018.3 |
| 20260903150521 | 76 | 123 | 1.0 | 12.0 | 0.00 | 2.66 | 2.64 | 77 | 1018.3 |
| 20260903145804 | 75 | 114 | 1.0 | 5.0 | 0.00 | 2.66 | 2.64 | 77 | 1018.3 |
| 20260903145306 | 75 | 85 | 1.0 | 7.0 | 0.00 | 2.66 | 2.64 | 79 | 1018.2 |
| 20260903144804 | 74 | 80 | 1.0 | 7.0 | 0.00 | 2.66 | 2.64 | 79 | 1018.1 |
| 20260903144520 | 74 | 86 | 1.0 | 6.0 | 0.00 | 2.67 | 2.64 | 79 | 1018.1 |
| 20260903143758 | 73 | 20 | 2.0 | 7.0 | 0.00 | 2.68 | 2.64 | 81 | 1017.9 |
| 20260903143300 | 73 | 120 | 2.0 | 7.0 | 0.00 | 2.68 | 2.64 | 82 | 1018.1 |
| 20260903143016 | 72 | 90 | 1.0 | 6.0 | 0.00 | 2.69 | 2.64 | 84 | 1017.9 |
| 20260903142519 | 72 | 94 | 1.0 | 4.0 | 0.00 | 2.71 | 2.64 | 86 | 1017.8 |
| 20260903141757 | 71 | 112 | 1.0 | 4.0 | 0.00 | 2.72 | 2.64 | 86 | 1017.8 |
| 20260903141257 | 71 | 115 | 2.0 | 7.0 | 0.00 | 2.75 | 2.64 | 86 | 1017.7 |
| 20260903140755 | 71 | 111 | 1.0 | 7.0 | 0.00 | 2.83 | 2.64 | 86 | 1017.5 |
| 20260903140524 | 71 | 106 | 1.0 | 7.0 | 0.00 | 2.92 | 2.64 | 88 | 1017.5 |
| 20260903135753 | 70 | 77 | 1.0 | 6.0 | 0.00 | 3.07 | 2.64 | 89 | 1017.5 |
| 20260903135253 | 69 | 107 | 1.0 | 6.0 | 0.02 | 3.24 | 2.64 | 90 | 1017.4 |
| 20260903135006 | 68 | 101 | 2.0 | 7.0 | 0.04 | 3.24 | 2.64 | 89 | 1017.5 |
| 20260903134512 | 68 | 82 | 3.0 | 8.0 | 0.06 | 3.24 | 2.64 | 90 | 1017.5 |
| 20260903133748 | 68 | 69 | 3.0 | 9.0 | 0.08 | 3.24 | 2.64 | 90 | 1017.7 |
| 20260903133250 | 67 | 46 | 3.0 | 9.0 | 0.11 | 3.24 | 2.64 | 90 | 1017.9 |
| 20260903132749 | 67 | 109 | 2.0 | 9.0 | 0.14 | 3.24 | 2.64 | 91 | 1018.3 |
| 20260903132507 | 67 | 91 | 2.0 | 9.0 | 0.15 | 3.24 | 2.64 | 90 | 1018.5 |
| 20260903131743 | 66 | 148 | 3.0 | 9.0 | 0.16 | 3.24 | 2.64 | 90 | 1018.5 |
| 20260903131236 | 66 | 63 | 2.0 | 8.0 | 0.20 | 3.24 | 2.64 | 91 | 1018.8 |
| 20260903130730 | 66 | 86 | 1.0 | 5.0 | 0.22 | 3.24 | 2.64 | 91 | 1018.9 |
| 20260903130449 | 66 | 30 | 0.0 | 4.0 | 0.22 | 3.24 | 2.64 | 91 | 1019.1 |
| 20260903125718 | 66 | 30 | 0.0 | 1.0 | 0.21 | 3.23 | 2.64 | 90 | 1019.1 |
| 20260903125213 | 66 | 30 | 0.0 | 1.0 | 0.20 | 3.22 | 2.62 | 90 | 1019.5 |
| 20260903124719 | 66 | 30 | 0.0 | 1.0 | 0.18 | 3.20 | 2.60 | 90 | 1019.8 |
| 20260903124201 | 66 | 30 | 0.0 | 3.0 | 0.16 | 3.18 | 2.58 | 91 | 1020.0 |
| 20260903123707 | 66 | 30 | 0.0 | 3.0 | 0.13 | 3.15 | 2.56 | 91 | 1020.3 |
| 20260903123151 | 66 | 30 | 0.0 | 2.0 | 0.10 | 3.12 | 2.53 | 91 | 1020.7 |
| 20260903122906 | 66 | 30 | 0.0 | 2.0 | 0.08 | 3.10 | 2.50 | 91 | 1020.8 |
| 20260903122136 | 65 | 32 | 0.0 | 4.0 | 0.07 | 3.09 | 2.49 | 91 | 1020.9 |
| 20260903121630 | 65 | 287 | 1.0 | 7.0 | 0.05 | 3.07 | 2.48 | 91 | 1020.8 |
| 20260903121124 | 65 | 325 | 1.0 | 7.0 | 0.02 | 3.04 | 2.45 | 91 | 1020.9 |
| 20260903120618 | 65 | 51 | 0.0 | 3.0 | 0.00 | 3.02 | 2.42 | 91 | 1021.0 |
| 20260903120335 | 65 | 55 | 0.0 | 0.0 | 0.00 | 3.02 | 2.42 | 91 | 1019.1 |
| 20260903115607 | 65 | 55 | 0.0 | 0.0 | 0.00 | 3.02 | 2.42 | 91 | 1018.6 |
| 20260903115100 | 65 | 55 | 0.0 | 0.0 | 0.00 | 3.02 | 2.42 | 91 | 1018.5 |
| 20260903114825 | 65 | 55 | 0.0 | 0.0 | 0.00 | 3.02 | 2.42 | 91 | 1018.4 |
| 20260903114049 | 65 | 55 | 0.0 | 0.0 | 0.00 | 3.02 | 2.42 | 91 | 1018.1 |
| 20260903113545 | 65 | 55 | 0.0 | 0.0 | 0.00 | 3.02 | 2.42 | 91 | 1018.1 |
| 20260903113037 | 65 | 55 | 0.0 | 0.0 | 0.00 | 3.02 | 2.42 | 92 | 1018.3 |
| 20260903112530 | 65 | 55 | 0.0 | 0.0 | 0.00 | 3.02 | 2.42 | 92 | 1018.2 |
| 20260903112025 | 65 | 55 | 0.0 | 0.0 | 0.00 | 3.02 | 2.42 | 91 | 1018.1 |
| 20260903111519 | 65 | 55 | 0.0 | 0.0 | 0.00 | 3.02 | 2.42 | 91 | 1017.8 |
| 20260903111012 | 64 | 55 | 0.0 | 0.0 | 0.00 | 3.02 | 2.42 | 91 | 1017.7 |
| 20260903110506 | 64 | 55 | 0.0 | 0.0 | 0.00 | 3.02 | 2.42 | 91 | 1017.6 |
| 20260903110000 | 64 | 55 | 0.0 | 0.0 | 0.00 | 3.02 | 2.42 | 91 | 1017.5 |
| 20260903105945 | 64 | 55 | 0.0 | 0.0 | 0.00 | 3.02 | 2.42 | 90 | 1017.4 |
| 20260903104949 | 64 | 55 | 0.0 | 0.0 | 0.00 | 3.02 | 2.42 | 90 | 1017.3 |
| 20260903104442 | 64 | 55 | 0.0 | 0.0 | 0.00 | 3.02 | 2.42 | 90 | 1017.3 |
| 20260903103937 | 65 | 55 | 0.0 | 0.0 | 0.00 | 3.02 | 2.42 | 90 | 1017.3 |
| 20260903103430 | 65 | 55 | 0.0 | 0.0 | 0.00 | 3.02 | 2.42 | 90 | 1017.3 |
| 20260903102924 | 65 | 55 | 0.0 | 0.0 | 0.00 | 3.02 | 2.42 | 90 | 1017.4 |
| 20260903102418 | 65 | 55 | 0.0 | 0.0 | 0.00 | 3.02 | 2.42 | 90 | 1017.4 |
| 20260903101913 | 65 | 55 | 0.0 | 0.0 | 0.00 | 3.02 | 2.42 | 90 | 1017.2 |
| 20260903101407 | 65 | 55 | 0.0 | 0.0 | 0.00 | 3.02 | 2.42 | 90 | 1017.3 |
| 20260903100914 | 65 | 55 | 0.0 | 0.0 | 0.00 | 3.02 | 2.42 | 90 | 1017.0 |
| 20260903100354 | 65 | 55 | 0.0 | 3.0 | 0.00 | 3.02 | 2.42 | 90 | 1016.9 |
| 20260903095848 | 65 | 55 | 0.0 | 3.0 | 0.00 | 3.02 | 2.42 | 90 | 1016.8 |
| 20260903095349 | 65 | 54 | 0.0 | 0.0 | 0.01 | 3.02 | 2.42 | 90 | 1017.0 |
| 20260903095105 | 66 | 54 | 0.0 | 0.0 | 0.02 | 3.02 | 2.42 | 90 | 1016.9 |
| 20260903094827 | 66 | 54 | 0.0 | 0.0 | 0.06 | 3.02 | 2.42 | 90 | 1016.9 |
| 20260903094112 | 66 | 54 | 0.0 | 0.0 | 0.07 | 3.02 | 2.42 | 90 | 1016.9 |
| 20260903093344 | 66 | 54 | 0.0 | 0.0 | 0.08 | 3.02 | 2.42 | 90 | 1017.0 |
| 20260903092842 | 66 | 54 | 0.0 | 4.0 | 0.08 | 3.02 | 2.42 | 90 | 1017.1 |
| 20260903092346 | 66 | 54 | 1.0 | 6.0 | 0.16 | 3.02 | 2.42 | 90 | 1017.3 |
| 20260903091842 | 66 | 45 | 3.0 | 9.0 | 0.23 | 3.02 | 2.42 | 90 | 1017.5 |
| 20260903091340 | 66 | 96 | 3.0 | 9.0 | 0.29 | 3.02 | 2.42 | 90 | 1017.6 |
| 20260903090838 | 66 | 86 | 1.0 | 5.0 | 0.29 | 3.02 | 2.42 | 90 | 1017.7 |
| 20260903090351 | 66 | 64 | 1.0 | 5.0 | 0.29 | 3.02 | 2.42 | 90 | 1018.2 |
| 20260903085838 | 66 | 63 | 1.0 | 8.0 | 0.29 | 3.02 | 2.42 | 90 | 1018.8 |
| 20260903085338 | 66 | 65 | 1.0 | 8.0 | 0.28 | 3.01 | 2.41 | 90 | 1018.8 |
| 20260903085100 | 66 | 56 | 1.0 | 3.0 | 0.28 | 3.00 | 2.40 | 90 | 1018.8 |
| 20260903084339 | 66 | 61 | 1.0 | 3.0 | 0.24 | 2.96 | 2.37 | 90 | 1019.5 |
| 20260903083838 | 66 | 61 | 0.0 | 1.0 | 0.24 | 2.95 | 2.35 | 90 | 1019.9 |
| 20260903083600 | 66 | 61 | 0.0 | 0.0 | 0.26 | 2.94 | 2.34 | 90 | 1019.7 |
| 20260903083102 | 66 | 61 | 0.0 | 0.0 | 0.30 | 2.94 | 2.34 | 90 | 1019.5 |
| 20260903082601 | 66 | 61 | 0.0 | 0.0 | 0.36 | 2.86 | 2.26 | 90 | 1019.2 |
| 20260903081838 | 66 | 61 | 0.0 | 0.0 | 0.39 | 2.79 | 2.19 | 90 | 1019.2 |
| 20260903081338 | 66 | 61 | 0.0 | 3.0 | 0.34 | 2.73 | 2.13 | 90 | 1019.3 |
| 20260903080838 | 67 | 61 | 1.0 | 4.0 | 0.43 | 2.73 | 2.13 | 90 | 1019.0 |
| 20260903080338 | 67 | 61 | 1.0 | 4.0 | 0.46 | 2.73 | 2.13 | 89 | 1018.8 |
| 20260903080059 | 67 | 61 | 0.0 | 0.0 | 0.46 | 2.73 | 2.13 | 90 | 1018.6 |
| 20260903075817 | 67 | 61 | 0.0 | 0.0 | 0.46 | 2.73 | 2.13 | 90 | 1018.5 |
| 20260903074838 | 67 | 61 | 0.0 | 0.0 | 0.45 | 2.72 | 2.12 | 89 | 1018.6 |
| 20260903074824 | 67 | 61 | 0.0 | 0.0 | 0.45 | 2.72 | 2.12 | 89 | 1018.3 |
| 20260903074104 | 67 | 61 | 0.0 | 5.0 | 0.44 | 2.71 | 2.11 | 89 | 1018.3 |
| 20260903073338 | 67 | 61 | 1.0 | 7.0 | 0.41 | 2.68 | 2.08 | 89 | 1018.7 |
| 20260903072836 | 68 | 61 | 1.0 | 7.0 | 0.37 | 2.64 | 2.04 | 89 | 1018.9 |
| 20260903072338 | 68 | 195 | 1.0 | 12.0 | 0.23 | 2.50 | 1.92 | 89 | 1019.2 |
| 20260903072058 | 68 | 163 | 1.0 | 12.0 | 0.14 | 2.40 | 1.80 | 89 | 1019.4 |
| 20260903071336 | 68 | 191 | 0.0 | 7.0 | 0.13 | 2.39 | 1.79 | 89 | 1018.7 |
| 20260903070836 | 68 | 273 | 1.0 | 6.0 | 0.06 | 2.28 | 1.69 | 89 | 1018.3 |
| 20260903070551 | 68 | 311 | 2.0 | 11.0 | 0.22 | 2.27 | 1.67 | 89 | 1018.1 |
| 20260903065832 | 68 | 59 | 2.0 | 11.0 | 0.41 | 2.27 | 1.67 | 89 | 1017.7 |
| 20260903065331 | 68 | 337 | 1.0 | 9.0 | 0.47 | 2.27 | 1.67 | 89 | 1018.4 |
| 20260903064829 | 68 | 276 | 0.0 | 6.0 | 0.52 | 2.27 | 1.67 | 90 | 1018.6 |
| 20260903064328 | 68 | 344 | 0.0 | 1.0 | 0.52 | 2.27 | 1.67 | 90 | 1018.4 |
| 20260903063828 | 68 | 0 | 0.0 | 2.0 | 0.52 | 2.27 | 1.67 | 89 | 1017.6 |
| 20260903063545 | 68 | 0 | 0.0 | 2.0 | 0.52 | 2.27 | 1.67 | 89 | 1017.3 |
| 20260903062822 | 68 | 346 | 0.0 | 5.0 | 0.60 | 2.27 | 1.67 | 89 | 1017.1 |
| 20260903062321 | 69 | 346 | 2.0 | 11.0 | 0.66 | 2.27 | 1.67 | 88 | 1017.0 |
| 20260903061818 | 69 | 9 | 3.0 | 11.0 | 0.74 | 2.26 | 1.66 | 89 | 1017.3 |
| 20260903061318 | 69 | 46 | 4.0 | 16.0 | 0.93 | 2.26 | 1.66 | 89 | 1017.7 |
| 20260903060818 | 69 | 150 | 5.0 | 16.0 | 1.19 | 2.20 | 1.62 | 88 | 1018.3 |
| 20260903060320 | 69 | 55 | 4.0 | 15.0 | 1.44 | 2.05 | 1.45 | 89 | 1018.1 |
| 20260903055804 | 69 | 43 | 4.0 | 10.0 | 1.26 | 1.86 | 1.26 | 89 | 1018.7 |
| 20260903055306 | 69 | 91 | 2.0 | 10.0 | 1.20 | 1.80 | 1.20 | 89 | 1017.9 |
| 20260903054805 | 68 | 69 | 0.0 | 2.0 | 1.15 | 1.75 | 1.15 | 89 | 1018.6 |
| 20260903054306 | 68 | 69 | 0.0 | 3.0 | 1.15 | 1.75 | 1.15 | 89 | 1018.2 |
| 20260903053804 | 68 | 51 | 0.0 | 3.0 | 1.15 | 1.75 | 1.15 | 89 | 1017.6 |
| 20260903053303 | 68 | 281 | 1.0 | 5.0 | 1.14 | 1.74 | 1.15 | 88 | 1017.4 |
| 20260903052803 | 68 | 355 | 1.0 | 5.0 | 1.03 | 1.63 | 1.06 | 88 | 1017.3 |
| 20260903052301 | 69 | 70 | 1.0 | 7.0 | 1.01 | 1.61 | 1.01 | 87 | 1017.7 |
| 20260903051757 | 69 | 92 | 3.0 | 11.0 | 0.92 | 1.52 | 0.93 | 85 | 1017.8 |
| 20260903051300 | 69 | 68 | 7.0 | 25.0 | 0.73 | 1.33 | 0.73 | 82 | 1017.9 |
| 20260903050758 | 71 | 289 | 5.0 | 25.0 | 0.41 | 1.01 | 0.44 | 79 | 1018.4 |
| 20260903050259 | 74 | 141 | 0.0 | 3.0 | 0.01 | 0.61 | 0.01 | 83 | 1018.6 |
| 20260903045758 | 74 | 123 | 0.0 | 2.0 | 0.00 | 0.60 | 0.00 | 82 | 1016.9 |
| 20260903045300 | 74 | 123 | 0.0 | 2.0 | 0.00 | 0.60 | 0.00 | 82 | 1017.0 |
| 20260903044800 | 74 | 130 | 0.0 | 1.0 | 0.00 | 0.60 | 0.00 | 81 | 1016.9 |
| 20260903044257 | 74 | 131 | 0.0 | 3.0 | 0.00 | 0.60 | 0.00 | 82 | 1016.9 |
| 20260903043755 | 74 | 59 | 0.0 | 5.0 | 0.00 | 0.60 | 0.00 | 82 | 1016.5 |
| 20260903043517 | 75 | 66 | 1.0 | 11.0 | 0.00 | 0.60 | 0.00 | 81 | 1016.4 |
| 20260903043003 | 75 | 78 | 2.0 | 11.0 | 0.00 | 0.60 | 0.00 | 81 | 1016.4 |
| 20260903042239 | 75 | 99 | 4.0 | 12.0 | 0.00 | 0.60 | 0.00 | 81 | 1016.4 |
| 20260903041733 | 75 | 0 | 4.0 | 12.0 | 0.00 | 0.60 | 0.00 | 80 | 1016.6 |
| 20260903041228 | 76 | 72 | 3.0 | 9.0 | 0.00 | 0.60 | 0.00 | 81 | 1016.9 |
| 20260903040728 | 76 | 13 | 3.0 | 10.0 | 0.00 | 0.60 | 0.00 | 81 | 1017.0 |
| 20260903040226 | 76 | 9 | 4.0 | 12.0 | 0.00 | 0.60 | 0.00 | 81 | 1016.9 |
| 20260903035942 | 76 | 59 | 4.0 | 12.0 | 0.00 | 0.60 | 0.60 | 81 | 1016.7 |
| 20260903035225 | 76 | 44 | 5.0 | 12.0 | 0.00 | 0.60 | 0.60 | 81 | 1016.7 |
| 20260903034725 | 75 | 93 | 4.0 | 12.0 | 0.00 | 0.60 | 0.60 | 82 | 1016.6 |
| 20260903034454 | 74 | 53 | 1.0 | 6.0 | 0.00 | 0.60 | 0.60 | 86 | 1016.7 |
| 20260903033725 | 74 | 103 | 0.0 | 3.0 | 0.00 | 0.60 | 0.60 | 86 | 1016.9 |
| 20260903033226 | 74 | 104 | 0.0 | 0.0 | 0.00 | 0.60 | 0.60 | 86 | 1016.9 |
| 20260903032725 | 74 | 104 | 0.0 | 0.0 | 0.00 | 0.60 | 0.60 | 86 | 1016.9 |
| 20260903032449 | 74 | 104 | 0.0 | 0.0 | 0.00 | 0.60 | 0.60 | 86 | 1017.1 |
| 20260903031949 | 74 | 104 | 0.0 | 0.0 | 0.00 | 0.60 | 0.60 | 85 | 1017.2 |
| 20260903031226 | 75 | 104 | 0.0 | 0.0 | 0.00 | 0.60 | 0.60 | 85 | 1017.4 |
| 20260903030725 | 75 | 104 | 0.0 | 0.0 | 0.00 | 0.60 | 0.60 | 84 | 1017.3 |
| 20260903030431 | 75 | 104 | 0.0 | 0.0 | 0.00 | 0.60 | 0.60 | 84 | 1017.6 |
| 20260903030426 | 75 | 104 | 0.0 | 0.0 | 0.00 | 0.60 | 0.60 | 84 | 1017.4 |
| 20260903025443 | 76 | 104 | 0.0 | 0.0 | 0.00 | 0.60 | 0.60 | 83 | 1017.6 |
| 20260903024719 | 76 | 104 | 0.0 | 0.0 | 0.00 | 0.60 | 0.60 | 82 | 1017.4 |
| 20260903024219 | 76 | 104 | 0.0 | 0.0 | 0.00 | 0.60 | 0.60 | 81 | 1017.2 |
| 20260903023719 | 76 | 104 | 0.0 | 0.0 | 0.00 | 0.60 | 0.60 | 81 | 1016.9 |
| 20260903023219 | 77 | 104 | 0.0 | 1.0 | 0.00 | 0.60 | 0.60 | 80 | 1016.8 |
| 20260903022719 | 77 | 104 | 0.0 | 4.0 | 0.00 | 0.60 | 0.60 | 80 | 1016.6 |
| 20260903022454 | 77 | 104 | 0.0 | 4.0 | 0.00 | 0.60 | 0.60 | 79 | 1016.4 |
| 20260903021719 | 77 | 78 | 0.0 | 3.0 | 0.00 | 0.60 | 0.60 | 79 | 1016.3 |
| 20260903021219 | 77 | 76 | 1.0 | 5.0 | 0.00 | 0.60 | 0.60 | 79 | 1016.4 |
| 20260903020733 | 77 | 57 | 1.0 | 5.0 | 0.00 | 0.60 | 0.60 | 80 | 1016.5 |
| 20260903020219 | 77 | 50 | 0.0 | 5.0 | 0.00 | 0.60 | 0.60 | 80 | 1016.6 |
| 20260903015719 | 77 | 60 | 1.0 | 4.0 | 0.00 | 0.60 | 0.60 | 81 | 1016.6 |
| 20260903015219 | 77 | 51 | 0.0 | 4.0 | 0.00 | 0.60 | 0.60 | 82 | 1016.5 |
| 20260903014941 | 77 | 89 | 0.0 | 1.0 | 0.00 | 0.60 | 0.60 | 82 | 1016.7 |
| 20260903014439 | 77 | 89 | 0.0 | 2.0 | 0.00 | 0.60 | 0.60 | 82 | 1016.8 |
| 20260903013719 | 77 | 84 | 0.0 | 2.0 | 0.00 | 0.60 | 0.60 | 82 | 1016.6 |
| 20260903013220 | 77 | 80 | 0.0 | 2.0 | 0.00 | 0.60 | 0.60 | 82 | 1016.4 |
| 20260903012716 | 77 | 76 | 0.0 | 2.0 | 0.00 | 0.60 | 0.60 | 82 | 1016.4 |
| 20260903012435 | 78 | 72 | 0.0 | 3.0 | 0.00 | 0.60 | 0.60 | 82 | 1016.5 |
| 20260903011717 | 78 | 72 | 1.0 | 8.0 | 0.00 | 0.61 | 0.60 | 82 | 1016.4 |
| 20260903011218 | 78 | 104 | 1.0 | 8.0 | 0.00 | 0.62 | 0.60 | 82 | 1016.5 |
| 20260903010715 | 78 | 84 | 2.0 | 11.0 | 0.00 | 0.63 | 0.60 | 82 | 1016.5 |
| 20260903010212 | 78 | 64 | 2.0 | 11.0 | 0.00 | 0.63 | 0.60 | 82 | 1016.4 |
| 20260903005710 | 77 | 42 | 2.0 | 7.0 | 0.00 | 0.63 | 0.60 | 82 | 1016.3 |
| 20260903005211 | 77 | 50 | 2.0 | 8.0 | 0.00 | 0.63 | 0.60 | 82 | 1016.3 |
| 20260903004711 | 77 | 88 | 2.0 | 8.0 | 0.00 | 0.63 | 0.60 | 82 | 1016.1 |
| 20260903004211 | 77 | 84 | 1.0 | 8.0 | 0.00 | 0.63 | 0.60 | 83 | 1016.1 |
| 20260903003711 | 77 | 82 | 1.0 | 7.0 | 0.00 | 0.63 | 0.60 | 83 | 1016.1 |
| 20260903003211 | 77 | 138 | 1.0 | 7.0 | 0.00 | 0.63 | 0.60 | 83 | 1016.2 |
| 20260903002710 | 77 | 96 | 0.0 | 3.0 | 0.00 | 0.63 | 0.60 | 83 | 1016.2 |
| 20260903002210 | 77 | 24 | 0.0 | 5.0 | 0.00 | 0.63 | 0.60 | 83 | 1016.3 |
| 20260903001929 | 77 | 162 | 0.0 | 5.0 | 0.00 | 0.63 | 0.60 | 83 | 1016.4 |
| 20260903001208 | 77 | 74 | 1.0 | 4.0 | 0.00 | 0.63 | 0.60 | 83 | 1016.5 |
| 20260903000930 | 77 | 74 | 0.0 | 4.0 | 0.00 | 0.63 | 0.60 | 83 | 1016.6 |
| 20260903000447 | 77 | 96 | 0.0 | 2.0 | 0.00 | 0.63 | 0.60 | 83 | 1016.7 |
| 20260902235931 | 77 | 96 | 0.0 | 2.0 | 0.00 | 0.63 | 0.60 | 82 | 1016.7 |
| 20260902235434 | 77 | 96 | 0.0 | 1.0 | 0.00 | 0.63 | 0.60 | 82 | 1016.7 |
| 20260902234933 | 78 | 96 | 0.0 | 1.0 | 0.00 | 0.63 | 0.60 | 82 | 1016.9 |
| 20260902234209 | 78 | 96 | 0.0 | 4.0 | 0.00 | 0.63 | 0.60 | 81 | 1016.9 |
| 20260902233719 | 78 | 91 | 0.0 | 4.0 | 0.00 | 0.63 | 0.60 | 81 | 1017.0 |
| 20260902233221 | 78 | 115 | 0.0 | 5.0 | 0.00 | 0.63 | 0.60 | 81 | 1017.0 |
| 20260902232707 | 78 | 119 | 0.0 | 5.0 | 0.00 | 0.63 | 0.60 | 81 | 1017.1 |
| 20260902232427 | 78 | 70 | 0.0 | 3.0 | 0.00 | 0.63 | 0.60 | 80 | 1016.8 |
| 20260902231707 | 79 | 42 | 1.0 | 6.0 | 0.00 | 0.63 | 0.60 | 80 | 1016.7 |
| 20260902231220 | 79 | 53 | 2.0 | 7.0 | 0.00 | 0.63 | 0.60 | 79 | 1016.7 |
| 20260902230933 | 79 | 66 | 3.0 | 9.0 | 0.00 | 0.63 | 0.60 | 79 | 1016.5 |
| 20260902230220 | 79 | 49 | 3.0 | 9.0 | 0.00 | 0.63 | 0.60 | 78 | 1016.3 |
| 20260902225931 | 80 | 82 | 4.0 | 11.0 | 0.00 | 0.63 | 0.60 | 78 | 1016.2 |
| 20260902225643 | 80 | 40 | 4.0 | 11.0 | 0.00 | 0.63 | 0.60 | 77 | 1016.3 |
| 20260902224706 | 80 | 54 | 5.0 | 11.0 | 0.00 | 0.63 | 0.60 | 77 | 1016.3 |
| 20260902224207 | 80 | 19 | 5.0 | 11.0 | 0.00 | 0.63 | 0.60 | 76 | 1016.4 |
| 20260902224151 | 81 | 80 | 4.0 | 11.0 | 0.00 | 0.63 | 0.60 | 76 | 1016.6 |
| 20260902223429 | 81 | 19 | 5.0 | 11.0 | 0.00 | 0.63 | 0.60 | 76 | 1016.5 |
| 20260902222707 | 81 | 72 | 4.0 | 11.0 | 0.00 | 0.63 | 0.60 | 76 | 1016.5 |
| 20260902222207 | 82 | 71 | 3.0 | 10.0 | 0.00 | 0.63 | 0.60 | 75 | 1016.7 |
| 20260902221706 | 82 | 67 | 3.0 | 11.0 | 0.00 | 0.63 | 0.60 | 75 | 1016.9 |
| 20260902221206 | 82 | 88 | 3.0 | 11.0 | 0.00 | 0.63 | 0.60 | 75 | 1017.0 |
| 20260902220706 | 83 | 86 | 3.0 | 9.0 | 0.00 | 0.63 | 0.60 | 74 | 1017.1 |
| 20260902220207 | 83 | 44 | 3.0 | 8.0 | 0.00 | 0.63 | 0.60 | 74 | 1017.2 |
| 20260902215707 | 83 | 67 | 2.0 | 8.0 | 0.00 | 0.63 | 0.60 | 74 | 1017.2 |
| 20260902215656 | 83 | 81 | 3.0 | 8.0 | 0.00 | 0.63 | 0.60 | 73 | 1017.1 |
| 20260902214705 | 83 | 61 | 3.0 | 9.0 | 0.00 | 0.63 | 0.60 | 72 | 1017.1 |
| 20260902214206 | 85 | 84 | 3.0 | 9.0 | 0.00 | 0.63 | 0.60 | 71 | 1017.1 |